Location: Gellin
(53.4498°N, 14.3207°E)
Time: 21:19:23
(UTC+00:00)

Meteor 2-20 Rocket - Pass Details

Date: 03 March 2021
Orbit: 941 x 959 km, 82.5° (Epoch: 12 April)

Event Time Altitude Azimuth Distance (km) Brightness Sun altitude
Rises 19:39:06 0° 347° (NNW) 3,623 8.0 -26.1°
Reaches altitude 10° 19:41:36 10° 347° (NNW) 2,676 7.3 -26.4°
Maximum altitude 19:47:42 80° 262° (W) 968 4.4 -27.2°
Enters shadow 19:49:11 54° 186° (S) 1,139 4.6 -27.4°
